Regional Weather Roundup
Issued by NWS

Home | Current Version | Previous Version | Text Only | Print | Product List | Glossary Off
Versions: 1 2 3 4 5 6 7 8 9 10 11 12 13 14 15 16 17 18 19 20 21 22 23 24 25 26 27 28 29 30 31 32 33 34 35 36 37 38 39 40 41 42 43 44 45 46 47 48 49 50

000
ASUS43 KMPX 311501
RWRMN
WEATHER ROUNDUP FOR MINNESOTA
NATIONAL WEATHER SERVICE TWIN CITIES/CHANHASSEN MN
1000 AM CDT FRI JUL 31 2015


NOTE: "FAIR" INDICATES FEW OR NO CLOUDS BELOW 12,000 FEET WITH NO
SIGNIFICANT WEATHER AND/OR OBSTRUCTIONS TO VISIBILITY. N/A MEANS
CURRENT SKY AND/OR WEATHER CONDITIONS ARE NOT AVAILABLE.

MNZ060>063-068>070-311600-
   Twin Cities Metro

CITY           SKY/WX    TMP DP  RH WIND       PRES   REMARKS
TWIN CITIES    SUNNY     75  53  46 NW13G23   30.08S
ST PAUL        SUNNY     76  51  41 W20G26    30.07S
CRYSTAL        SUNNY     76  53  44 NW14G21   30.07S
BLAINE         SUNNY     75  54  46 W14G21    30.07S
LAKEVILLE      SUNNY     73  57  56 NW8       30.09S
EDEN PRAIRIE   SUNNY     75  54  47 NW12G20   30.08S
SOUTH ST PAUL  SUNNY     76  50  40 W14G20    30.07S
LAKE ELMO      FAIR      73  54  49 W15G23    30.08S
$$
MNZ001>005-007-008-013>017-022>024-027-028-311600-
   Northwest Minnesota

CITY           SKY/WX    TMP DP  RH WIND       PRES   REMARKS
BEMIDJI        SUNNY     69  53  56 W14G20    30.04F
HALLOCK        SUNNY     70  55  60 NW14      30.03S
ROSEAU         SUNNY     68  57  68 NW12      30.01S
WARROAD        SUNNY     68  59  73 W8        30.00S
THIEF RVR FALL SUNNY     66  54  63 W12       30.05S
CROOKSTON      SUNNY     70  55  60 NW14      30.07S
FOSSTON        SUNNY     68  54  60 W7        30.07S
DETROIT LAKES  SUNNY     70  52  52 NW14      30.11S
MOORHEAD       SUNNY     72  57  60 W8        30.10S
PARK RAPIDS    SUNNY     71  53  52 W17       30.08S
MAHNOMEN       FAIR      67  55  63 W12       30.09S
$$
MNZ006-009>011-018-025>026-311600-
   North Central Minnesota

CITY           SKY/WX    TMP DP  RH WIND       PRES   REMARKS
BAUDETTE       SUNNY     67  55  65 W12G20    29.98S
FLAG ISLAND    SUNNY     66  57  72 W14       29.95S
INTL FALLS     MOSUNNY   68  58  70 W10       29.95F
WASKISH        SUNNY     68  57  68 W13G18    30.01R
BIG FORK       SUNNY     70  55  60 NW9       30.00S
LONGVILLE      SUNNY     70  55  60 W8G16     30.04F
GRAND RAPIDS   SUNNY     68  54  60 W10       30.02S
CRANE LAKE     MOSUNNY   64  55  72 W6        29.96S
ORR            SUNNY     66  54  63 NW10G16   29.95S
COOK           MOSUNNY   66  55  68 W13       29.98S
WALKER         FAIR      67  53  61 W12G18    30.05S
$$
MNZ012-019>021-037-311600-
   Northeast Minnesota

CITY           SKY/WX    TMP DP  RH WIND       PRES   REMARKS
DULUTH         SUNNY     70  54  56 NW15G22   29.98S
ELY            MOSUNNY   66  52  59 NW13G24   29.95R
HIBBING        SUNNY     69  53  56 NW15G25   29.99S
EVELETH        SUNNY     68  52  56 NW14G22   29.99S
DULUTH HARBOR  SUNNY     72  54  53 W16G22    29.97S
TWO HARBORS    SUNNY     73  57  56 W7G18     29.93S
SILVER BAY     MOSUNNY   72  55  56 W6        29.92S
GRAND MARAIS     N/A     73  53  49 VRB5      29.86S
G MARAIS ARPRT   N/A     64  48  55 W13G20    29.90S
$$
MNZ029>031-032-039>041-046>048-054>057-064-311600-
   West Central Minnesota

CITY           SKY/WX    TMP DP  RH WIND       PRES   REMARKS
FERGUS FALLS   SUNNY     68  57  68 NW9       30.11F
WHEATON        SUNNY     72  55  56 W9        30.14S
MORRIS         SUNNY     73  59  60 NW8       30.11F
ALEXANDRIA     SUNNY     71  55  56 NW8       30.13S
ELBOW LAKE     FAIR      68  57  67 NW9       30.13S
WADENA         SUNNY     72  54  53 W8        30.09S
GLENWOOD       SUNNY     72  55  56 NW12      30.13S
APPLETON       SUNNY     73  57  56 NW6       30.13R
BENSON         SUNNY     75  55  50 N7        30.12S
ORTONVILLE     SUNNY     73  54  49 NW8       30.13S
MADISON        SUNNY     73  55  53 W5        30.14R
WILLMAR        FAIR      73  61  64 W9        30.13F
$$
MNZ033>034-036-042>043-049>051-058-059-311600-
   Central Minnesota

CITY           SKY/WX    TMP DP  RH WIND       PRES   REMARKS
ST CLOUD       SUNNY     73  54  51 NW12      30.08F
SAUK CENTRE    FAIR      71  55  58 W9        30.11S
PAYNESVILLE    SUNNY     71  54  55 W10       30.12S
AITKIN         SUNNY     72  55  56 W6        30.03F
PINE RIVER     SUNNY     70  54  56 NW8       30.09S
BRAINERD       SUNNY     70  54  56 W9        30.07S
STAPLES        SUNNY     70  52  52 NW14      30.09S
LONG PRAIRIE   FAIR      70  52  52 W10       30.11S
LITTLE FALLS   SUNNY     70  50  49 NW12G18   30.09S
LITCHFIELD     SUNNY     73  57  56 W8        30.11F
BUFFALO        SUNNY     73  53  48 W10       30.11S
MAPLE LAKE     SUNNY     73  57  56 W8G17     30.10S
$$
MNZ037-044-045-052-053-311600-
   East Central Minnesota

CITY           SKY/WX    TMP DP  RH WIND       PRES   REMARKS
PRINCETON      SUNNY     73  55  53 W10G17    30.07S
MORA           SUNNY     70  54  56 W10       30.07S
CAMBRIDGE      SUNNY     73  55  53 W9        30.05S
RUSH CITY      SUNNY     71  56  58 W6        30.05S
MOOSE LAKE     SUNNY     70  52  52 NW12G17   30.01S
HINCKLEY       FAIR      72  59  64 W9        30.04S
CLOQUET        SUNNY     70  50  49 W17G23    30.00S
MCGREGOR       SUNNY     70  54  56 W12G17    30.04S
$$
MNZ071>073-080-081-089-090-097-098-311600-
   Southwest Minnesota

CITY           SKY/WX    TMP DP  RH WIND       PRES   REMARKS
MONTEVIDEO     SUNNY     79  66  65 NW5       30.15S
GRANITE FALLS  SUNNY     72  60  65 W5        30.15S
CANBY          SUNNY     76  52  42 NW7       30.16S
MARSHALL       SUNNY     73  54  49 W7        30.17S
REDWOOD FALLS  SUNNY     74  58  57 W7        30.13S
OLIVIA         SUNNY     72  55  56 NW6       30.12S
PIPESTONE      SUNNY     75  54  46 E3        30.18S
WINDOM         SUNNY     73  55  53 CALM      30.17R
WORTHINGTON    SUNNY     72  57  60 N5        30.17F
JACKSON        SUNNY     73  57  56 NW5       30.17S
TRACY          SUNNY     75  59  57 W3        30.16F
SLAYTON        SUNNY     74  56  51 CALM      30.19S
$$
MNZ065>067-074>077-082>085-091>093-311600-
   South Central Minnesota

CITY           SKY/WX    TMP DP  RH WIND       PRES   REMARKS
MANKATO        SUNNY     73  54  49 NW12      30.12S
NEW ULM        SUNNY     72  59  64 W6        30.13S
ST JAMES       SUNNY     75  61  60 W6        30.14F
FAIRMONT       PTSUNNY   73  55  53 NW5       30.15S
GLENCOE        SUNNY     74  58  59 W9        30.10F
FARIBAULT      SUNNY     73  57  56 W9        30.11F
OWATONNA       SUNNY     73  55  53 NW13      30.12S
WASECA         SUNNY     72  55  56 NW9       30.13S
ALBERT LEA     SUNNY     73  59  60 NW6       30.13S
$$
MNZ078>079-086>088-094>096-311600-
   Southeast Minnesota

CITY           SKY/WX    TMP DP  RH WIND       PRES   REMARKS
ROCHESTER      SUNNY     72  57  59 NW16      30.11S
RED WING       SUNNY     75  55  50 NW10G16   30.05F
STANTON        SUNNY     74  56  53 NW10      30.08F
DODGE CENTER   SUNNY     72  55  56 NW10G16   30.11S
WINONA         SUNNY     73  54  49 NW9       30.06S
AUSTIN         SUNNY     75  55  50 NW10      30.11S
PRESTON        SUNNY     71  55  56 NW12G18   30.11S
$$
ABBREVIATIONS USED IN REMARKS
   TC - TEMPERATURES IN CELSIUS
  WCI - WIND CHILL INDEX
   HX - HEAT INDEX
  VSB - VISIBILITY
$$



USA.gov is the U.S. government's official web portal to all federal, state and local government web resources and services.